This demonstration page uses our WeatherBlox Daily Observations layout. Learn more.

Left ArrowRight Arrow

Hourly Observations for June 12, 2021

Temp ( °F °C ) Dew Point ( °F °C ) Humidity (%) Winds ( mph kmh ) Pressure ( in mb ) Visibility ( mi km ) Precip ( " mm )
12:53 am 00:53 Clear 48 8.9 36 2.2 63 63 N N/A 29.95 1014 10 16 N/A
1:53 am 01:53 Clear 48 8.9 34 1.1 58 58 SSW 8 13 29.95 1014 10 16 N/A
2:53 am 02:53 Clear 45 7.2 35 1.7 68 68 N N/A 29.94 1014 10 16 N/A
3:53 am 03:53 Clear 42 5.6 35 1.7 76 76 N N/A 29.96 1015 10 16 N/A
4:53 am 04:53 Clear 42 5.6 35 1.7 76 76 N N/A 29.95 1014 10 16 N/A
5:53 am 05:53 Mostly Cloudy 43 6.1 36 2.2 76 76 ENE 3 6 29.94 1014 10 16 N/A
6:53 am 06:53 Mostly Sunny 49 9.4 37 2.8 64 64 NE 3 6 29.93 1014 10 16 N/A
7:53 am 07:53 Mostly Sunny 54 12.2 38 3.3 55 55 NE 6 9 29.93 1013 10 16 N/A
8:53 am 08:53 Mostly Sunny 58 14.4 41 5 53 53 N N/A 29.94 1014 10 16 N/A
9:53 am 09:53 Cloudy 62 16.7 41 5 46 46 N N/A 29.94 1014 10 16 N/A
10:53 am 10:53 Mostly Cloudy 67 19.4 39 3.9 36 36 WNW 9 15 29.94 1014 10 16 N/A
11:53 am 11:53 Cloudy 69 20.6 40 4.4 35 35 W 12 19 29.94 1014 10 16 N/A
12:53 pm 12:53 Mostly Cloudy 74 23.3 39 3.9 28 28 W 15 24 29.93 1014 10 16 N/A
1:53 pm 13:53 Mostly Sunny 77 25 39 3.9 26 26 WSW 15 24 29.92 1013 10 16 N/A
2:53 pm 14:53 Mostly Sunny 77 25 40 4.4 26 26 W 23 37 29.94 1014 10 16 N/A
3:53 pm 15:53 Mostly Sunny 77 25 40 4.4 26 26 W 18 30 29.95 1014 10 16 N/A
4:53 pm 16:53 Mostly Sunny 78 25.6 39 3.9 25 25 WNW 24 39 29.96 1014 10 16 N/A
5:53 pm 17:53 Sunny 78 25.6 35 1.7 21 21 W 25 41 29.96 1015 10 16 N/A
6:53 pm 18:53 Sunny 76 24.4 32 undefined 20 20 WNW 23 37 29.96 1015 10 16 N/A
7:53 pm 19:53 Sunny 74 23.3 35 1.7 24 24 WNW 17 28 29.97 1015 10 16 N/A
8:53 pm 20:53 Sunny 68 20 39 3.9 35 35 W 8 13 29.99 1016 10 16 N/A
9:53 pm 21:53 Clear 55 12.8 40 4.4 57 57 W 7 11 30.03 1017 10 16 N/A
10:53 pm 22:53 Clear 53 11.7 40 4.4 61 61 SSW 7 11 30.04 1017 10 16 N/A
11:53 pm 23:53 Clear 51 10.6 40 4.4 66 66 S 7 11 30.06 1018 10 16 N/A

Powered by AerisWeather